Regional Weather Roundup
Issued by NWS

Home | Current Version | Previous Version | Graphics & Text | Print | Product List | Glossary On
Versions: 1 2 3 4 5 6 7 8 9 10 11 12 13 14 15 16 17 18 19 20 21 22 23 24 25 26 27 28 29 30 31 32 33 34 35 36 37 38 39 40 41 42 43 44 45 46 47 48 49 50
000
ASUS43 KDMX 231107
RWRIA

WEATHER ROUNDUP FOR IOWA
NATIONAL WEATHER SERVICE DES MOINES IA
600 AM CDT WED JUL 23 2014

NOTE: "FAIR" INDICATES FEW OR NO CLOUDS BELOW 12,000 FEET WITH NO
SIGNIFICANT WEATHER AND/OR OBSTRUCTIONS TO VISIBILITY.

* - THESE STATIONS ARE NOT NWS STATIONS...THUS NOT UNDER NWS
QUALITY CONTROL.  THEY ALSO DO NOT REPORT WEATHER SUCH
AS PRECIPITATION OR FOG.

IAZ001>003-012>014-020>022-031>034-043>046-231200-
   NORTHWEST IOWA

CITY           SKY/WX    TMP DP  RH WIND       PRES   REMARKS
CARROLL *      CLEAR     59  55  88 N5        30.20S
CHEROKEE *     CLEAR     59  59 100 N5        30.23R
DENISON *      CLEAR     61  57  88 CALM      30.20R
LE MARS *      CLEAR     57  55  94 NW3       30.25R
ORANGE CITY *  CLEAR     63  54  72 NE5       30.25R
SHELDON *      CLEAR     55  55 100 NE3       30.24R
SIOUX CITY     CLEAR     63  56  78 NE3       30.24R
SPENCER        PTCLDY    58  55  90 N6        30.24R
STORM LAKE *   CLEAR     63  59  88 NE10G16   30.23R
$$

IAZ055>058-069>071-079>083-090>094-231200-
   SOUTHWEST IOWA

CITY           SKY/WX    TMP DP  RH WIND       PRES   REMARKS
ATLANTIC *     CLEAR     61  57  88 N6        30.20R
AUDUBON *      CLEAR     63  59  88 CALM      30.22R
CLARINDA *     CLEAR     63  61  94 N5        30.19S
COUNCIL BLFS * MOCLDY    61  61 100 N7        30.21R
CRESTON *      CLEAR     64  59  82 N13       30.18R
HARLAN  *      CLEAR     61  57  88 N5        30.24R
LAMONI         CLEAR     65  62  90 N8        30.16R
RED OAK *      CLEAR     63  59  88 N5        30.19R
SHENANDOAH *   CLEAR     63  61  94 CALM      30.20R
$$

IAZ047>049-059>061-072>074-084-231200-
   CENTRAL IOWA

CITY           SKY/WX    TMP DP  RH WIND       PRES   REMARKS
AMES           CLEAR     61  58  90 N7        30.18R
ANKENY *       CLEAR     63  59  88 N6        30.16R
CHARITON *     CLEAR     64  63  94 N5        30.15S
DES MOINES     PTCLDY    68  59  73 N7        30.15S
GRINNELL*      CLEAR     64  61  88 N7        30.17R
KNOXVILLE *    CLEAR     68  61  77 N9        30.14R
MARSHALLTOWN   CLEAR     62  59  90 NE6       30.16R
PELLA *        CLEAR     64  63  94 N3        30.16R
PERRY *          N/A     61  59  94 N5        30.20R
$$

IAZ004>006-015-016-023>025-035-036-231200-
   NORTH CENTRAL IOWA

CITY           SKY/WX    TMP DP  RH WIND       PRES   REMARKS
ALGONA *       CLEAR     57  55  94 N3        30.22F
CLARION *      CLEAR     57  55  94 N3        30.21R
ESTHERVILLE    PTCLDY    56  53  90 N7        30.24R
FORT DODGE *   PTCLDY    59  55  88 CALM      30.21S
MASON CITY     CLEAR     57  55  93 CALM      30.22R
FOREST CITY *  CLEAR     59  55  88 N5        30.21R
IOWA FALLS *     N/A     63  57  82 N3        30.21R
$$

IAZ007>011-017>019-026>030-037>042-050>054-066-231200-
   NORTHEAST IOWA

CITY           SKY/WX    TMP DP  RH WIND       PRES   REMARKS
CEDAR RAPIDS   CLEAR     66  62  87 N9        30.14R
CHARLES CITY * CLEAR     61  57  88 N6        30.20S
DECORAH *      MOCLDY    63  61  94 CALM      30.19S
DUBUQUE        CLEAR     63  60  90 NE8       30.17R
MONTICELLO *   CLEAR     63  61  94 CALM      30.16R
OELWEIN *      CLEAR     61  59  94 NE6       30.19R
WATERLOO       CLEAR     62  59  90 N5        30.17R
$$

IAZ064-065-067-068-078-231200-
   EAST CENTRAL IOWA

CITY           SKY/WX    TMP DP  RH WIND       PRES   REMARKS
DAVENPORT      CLEAR     66  62  87 N10       30.13R
IOWA CITY      CLEAR     68  64  87 N9        30.14R
MT. PLEASANT * CLEAR     68  64  88 N6        30.11R
MUSCATINE *    CLEAR     68  64  88 NE9       30.11R
QUAD CITIES    CLEAR     70  63  78 NE7       30.11R
$$

IAZ062-063-075>077-085>089-095>099-231200-
   SOUTHEAST IOWA

CITY           SKY/WX    TMP DP  RH WIND       PRES   REMARKS
BURLINGTON     CLEAR     70  66  87 N12       30.08R
FAIRFIELD *    CLEAR     66  63  88 N7        30.13R
FORT MADISON * CLEAR     70  66  88 N5        30.10R
KEOKUK *       CLEAR     70  68  94 N8        30.08R
OSKALOOSA *      N/A     64  64 100 N7        30.14R
CENTERVILLE *  CLEAR     66  66 100 N8        30.15R
OTTUMWA        CLEAR     66  63  90 N9        30.13S
WASHINGTON *   CLEAR     66  64  94 N8        30.12R
$$

ABBREVIATIONS USED IN REMARKS
   TC - TEMPERATURES IN CELSIUS
  WCI - WIND CHILL INDEX
   HX - HEAT INDEX
  VSB - VISIBILITY
$$




USA.gov is the U.S. government's official web portal to all federal, state and local government web resources and services.